CW3508 Weather Reports


Display with metric or nautical units.
time (UTC)temp
F
wind
direction
speed
MPH
gust
MPH
rain 1hr
in
rain 24hr
in
rain mn
in
humidity
%
barometer
mb
20260831010036 84 232 0.0 0.0 0.00 0.00 0.00 78 1014.3
20260831005524 84 232 0.0 0.0 0.00 0.00 0.00 77 1014.3
20260831005058 84 232 0.0 0.0 0.00 0.00 0.00 77 1014.3
20260831004517 84 232 0.0 0.0 0.00 0.00 0.00 76 1014.3
20260831004034 84 232 0.0 0.0 0.00 0.00 0.00 75 1014.1
20260831003532 85 232 0.0 0.0 0.00 0.00 0.00 75 1014.1
20260831003033 85 232 0.0 0.0 0.00 0.00 0.00 75 1014.1
20260831002032 85 232 0.0 0.0 0.00 0.00 0.00 74 1014.1
20260831001532 85 232 0.0 0.0 0.00 0.00 0.00 74 1014.1
20260831001025 85 232 0.0 0.0 0.00 0.00 0.00 73 1014.0
20260831000547 86 232 0.0 0.0 0.00 0.00 0.00 74 1014.0
20260831000028 86 232 0.0 0.0 0.00 0.00 0.00 73 1014.0
20260830235529 86 232 0.0 0.0 0.00 0.00 0.00 73 1014.0
20260830235044 86 232 0.0 0.0 0.00 0.00 0.00 72 1014.0
20260830234524 86 232 0.0 0.0 0.00 0.00 0.00 72 1014.0
20260830234030 86 232 0.0 0.0 0.00 0.00 0.00 72 1014.0
20260830233538 86 232 0.0 0.0 0.00 0.00 0.00 72 1014.0
20260830233030 87 232 0.0 0.0 0.00 0.00 0.00 72 1014.0
20260830232532 87 232 0.0 0.0 0.00 0.00 0.00 72 1014.0
20260830232028 87 232 0.0 0.0 0.00 0.00 0.00 72 1014.0
20260830231541 87 232 0.0 0.0 0.00 0.00 0.00 71 1014.0
20260830231039 87 232 0.0 0.0 0.00 0.00 0.00 71 1013.9
20260830230544 87 232 0.0 0.0 0.00 0.00 0.00 71 1013.9
20260830230027 87 232 0.0 0.0 0.00 0.00 0.00 71 1013.9
20260830225537 88 232 0.0 0.0 0.00 0.00 0.00 71 1013.8
20260830225019 88 232 0.0 0.0 0.00 0.00 0.00 70 1013.8
20260830224533 88 232 0.0 0.0 0.00 0.00 0.00 70 1013.8
20260830224049 88 232 0.0 0.0 0.00 0.00 0.00 70 1013.8
20260830223536 88 232 0.0 0.0 0.00 0.00 0.00 70 1013.8
20260830223019 88 232 0.0 1.0 0.00 0.00 0.00 69 1013.8
20260830222041 89 230 0.0 0.0 0.00 0.00 0.00 68 1013.9
20260830221526 89 230 0.0 0.0 0.00 0.00 0.00 68 1013.9
20260830221033 89 230 0.0 0.0 0.00 0.00 0.00 68 1013.9
20260830220524 89 230 0.0 1.0 0.00 0.00 0.00 68 1013.9
20260830220107 89 230 0.0 1.0 0.00 0.00 0.00 68 1013.9
20260830215544 89 202 0.0 0.0 0.00 0.00 0.00 65 1013.9
20260830215033 89 211 0.0 1.0 0.00 0.00 0.00 66 1013.9
20260830214521 89 211 0.0 1.0 0.00 0.00 0.00 66 1013.9
20260830214026 89 209 0.0 0.0 0.00 0.00 0.00 66 1014.0
20260830213027 90 209 0.0 1.0 0.00 0.00 0.00 66 1014.0
20260830212523 90 185 0.0 0.0 0.00 0.00 0.00 66 1014.0
20260830212019 90 184 0.0 0.0 0.00 0.00 0.00 67 1014.0
20260830211538 90 184 0.0 1.0 0.00 0.00 0.00 68 1014.0
20260830211043 90 184 0.0 1.0 0.00 0.00 0.00 68 1014.0
20260830210543 90 184 0.0 1.0 0.00 0.00 0.00 68 1014.0
20260830210030 90 184 0.0 1.0 0.00 0.00 0.00 65 1014.0
20260830205533 90 231 0.0 0.0 0.00 0.00 0.00 65 1014.2
20260830205036 90 231 0.0 0.0 0.00 0.00 0.00 65 1014.2
20260830204537 91 226 0.0 0.0 0.00 0.00 0.00 64 1014.2
20260830204026 91 261 0.0 0.0 0.00 0.00 0.00 65 1014.5
20260830203535 91 261 0.0 0.0 0.00 0.00 0.00 64 1014.5
20260830203021 91 216 0.0 1.0 0.00 0.00 0.00 67 1014.5
20260830202520 91 214 0.0 1.0 0.00 0.00 0.00 64 1014.5
20260830202027 91 282 0.0 4.0 0.00 0.00 0.00 65 1014.5
20260830201532 91 269 0.0 4.0 0.00 0.00 0.00 65 1014.5
20260830200517 91 221 0.0 0.0 0.00 0.00 0.00 65 1014.7
20260830200056 91 221 0.0 0.0 0.00 0.00 0.00 65 1014.7
20260830195542 91 157 0.0 1.0 0.00 0.00 0.00 64 1015.0
20260830195033 91 229 0.0 1.0 0.00 0.00 0.00 66 1015.0
20260830194537 91 228 0.0 1.0 0.00 0.00 0.00 64 1015.0
20260830194051 91 237 0.0 0.0 0.00 0.00 0.00 67 1015.0
20260830193520 91 237 0.0 0.0 0.00 0.00 0.00 68 1015.0
20260830193022 91 237 0.0 1.0 0.00 0.00 0.00 66 1015.0
20260830192532 91 251 0.0 1.0 0.00 0.00 0.00 67 1015.2
20260830192022 91 223 0.0 0.0 0.00 0.00 0.00 67 1015.2
20260830191520 91 221 0.0 0.0 0.00 0.00 0.00 66 1015.2
20260830191048 91 221 0.0 0.0 0.00 0.00 0.00 65 1015.3
20260830190523 92 221 0.0 0.0 0.00 0.00 0.00 66 1015.3
20260830190021 92 180 0.0 0.0 0.00 0.00 0.00 63 1015.3
20260830185532 92 298 0.0 0.0 0.00 0.00 0.00 66 1015.5
20260830185020 92 219 0.0 1.0 0.00 0.00 0.00 63 1015.5
20260830184539 92 317 0.0 3.0 0.00 0.00 0.00 64 1015.5
20260830184027 92 157 1.0 3.0 0.00 0.00 0.00 64 1015.6
20260830183530 91 284 0.0 0.0 0.00 0.00 0.00 67 1015.6
20260830183017 91 195 0.0 0.0 0.00 0.00 0.00 65 1015.6
20260830182534 91 231 0.0 1.0 0.00 0.00 0.00 65 1016.1
20260830182026 92 213 0.0 1.0 0.00 0.00 0.00 67 1016.1
20260830181530 92 213 0.0 1.0 0.00 0.00 0.00 65 1016.1
20260830181026 92 213 0.0 1.0 0.00 0.00 0.00 66 1016.3
20260830180536 92 166 0.0 1.0 0.00 0.00 0.00 64 1016.3
20260830180035 92 238 0.0 1.0 0.00 0.00 0.00 65 1016.3
20260830175519 92 124 0.0 1.0 0.00 0.00 0.00 69 1016.6
20260830175015 91 331 0.0 1.0 0.00 0.00 0.00 71 1016.6
20260830174515 90 243 0.0 1.0 0.00 0.00 0.00 72 1016.6
20260830174058 90 176 0.0 1.0 0.00 0.00 0.00 67 1016.6
20260830173517 91 235 0.0 1.0 0.00 0.00 0.00 66 1016.6
20260830173026 91 213 0.0 0.0 0.00 0.00 0.00 70 1016.6
20260830172529 90 190 0.0 0.0 0.00 0.00 0.00 70 1016.8
20260830171545 91 168 0.0 4.0 0.00 0.00 0.00 68 1016.8
20260830171036 92 200 0.0 4.0 0.00 0.00 0.00 68 1017.1
20260830170536 92 274 0.0 1.0 0.00 0.00 0.00 67 1017.1
20260830170028 91 276 0.0 0.0 0.00 0.00 0.00 72 1017.1
20260830165536 91 231 0.0 0.0 0.00 0.00 0.00 72 1017.1
20260830165042 91 231 0.0 0.0 0.00 0.00 0.00 70 1017.1
20260830164529 90 276 0.0 0.0 0.00 0.00 0.00 73 1017.1
20260830164036 89 276 0.0 0.0 0.00 0.00 0.00 73 1017.3
20260830163520 89 169 0.0 0.0 0.00 0.00 0.00 71 1017.3
20260830163031 89 118 0.0 0.0 0.00 0.00 0.00 76 1017.3
20260830162530 88 319 0.0 1.0 0.00 0.00 0.00 76 1017.6
20260830162021 87 308 0.0 1.0 0.00 0.00 0.00 77 1017.6
20260830161531 86 231 0.0 1.0 0.00 0.00 0.00 78 1017.6
20260830161020 86 75 0.0 1.0 0.00 0.00 0.00 78 1017.6
20260830160520 85 292 0.0 2.0 0.00 0.00 0.00 78 1017.6
20260830160033 85 257 0.0 0.0 0.00 0.00 0.00 82 1017.6
20260830155032 84 198 0.0 0.0 0.00 0.00 0.00 81 1017.7
20260830154541 84 198 0.0 0.0 0.00 0.00 0.00 82 1017.7
20260830154043 84 198 0.0 0.0 0.00 0.00 0.00 83 1017.6
20260830153532 83 215 0.0 1.0 0.00 0.00 0.00 82 1017.6
20260830153037 83 169 0.0 4.0 0.00 0.00 0.00 82 1017.6
20260830152536 83 281 0.0 4.0 0.00 0.00 0.00 84 1017.6
20260830152019 82 214 0.0 0.0 0.00 0.00 0.00 86 1017.6
20260830151553 82 214 0.0 1.0 0.00 0.00 0.00 86 1017.6
20260830151016 82 211 0.0 1.0 0.00 0.00 0.00 86 1017.6
20260830150527 81 140 0.0 1.0 0.00 0.00 0.00 87 1017.6
20260830150025 81 198 0.0 1.0 0.00 0.00 0.00 87 1017.6
20260830145526 80 175 0.0 1.0 0.00 0.00 0.00 88 1017.6
20260830145042 80 297 0.0 1.0 0.00 0.00 0.00 89 1017.6
20260830144517 80 148 0.0 1.0 0.00 0.00 0.00 89 1017.6
20260830144050 79 159 0.0 2.0 0.00 0.00 0.00 90 1017.6
20260830143535 79 159 0.0 2.0 0.00 0.00 0.00 90 1017.6
20260830143023 79 309 0.0 1.0 0.00 0.00 0.00 91 1017.6
20260830142535 79 327 0.0 0.0 0.00 0.00 0.00 92 1017.6
20260830142016 78 173 0.0 0.0 0.00 0.00 0.00 92 1017.6
20260830141546 78 202 0.0 0.0 0.00 0.00 0.00 93 1017.6
20260830141059 78 232 0.0 0.0 0.00 0.00 0.00 93 1017.6
20260830140541 78 232 0.0 0.0 0.00 0.00 0.00 93 1017.6
20260830140042 78 232 0.0 0.0 0.00 0.00 0.00 93 1017.6
20260830135020 77 234 0.0 1.0 0.00 0.00 0.00 94 1017.7
20260830134532 77 240 0.0 1.0 0.00 0.00 0.00 95 1017.7
20260830133534 76 286 0.0 0.0 0.00 0.00 0.00 95 1017.7
20260830133018 76 286 0.0 1.0 0.00 0.00 0.00 95 1017.7
20260830132516 76 286 0.0 0.0 0.00 0.00 0.00 96 1017.6
20260830132034 76 286 0.0 1.0 0.00 0.00 0.00 95 1017.6
20260830131517 75 286 0.0 1.0 0.00 0.00 0.00 95 1017.6
20260830131018 75 286 0.0 1.0 0.00 0.00 0.00 96 1017.4
20260830130519 75 286 0.0 0.0 0.00 0.00 0.00 96 1017.4
20260830125535 75 286 0.0 0.0 0.00 0.00 0.00 95 1017.2
20260830125034 75 286 0.0 0.0 0.00 0.00 0.00 95 1017.2
20260830124531 75 286 0.0 0.0 0.00 0.00 0.00 95 1017.2
20260830124024 74 279 0.0 0.0 0.00 0.00 0.00 95 1017.1
20260830123559 74 279 0.0 0.0 0.00 0.00 0.00 95 1017.1
20260830123038 74 279 0.0 0.0 0.00 0.00 0.00 95 1017.1
20260830122529 74 279 0.0 0.0 0.00 0.00 0.00 95 1017.1
20260830122042 74 279 0.0 0.0 0.00 0.00 0.00 95 1017.1
20260830121550 74 279 0.0 0.0 0.00 0.00 0.00 95 1017.1
20260830121034 74 279 0.0 0.0 0.00 0.00 0.00 95 1017.0
20260830120520 74 279 0.0 0.0 0.00 0.00 0.00 95 1017.0
20260830120026 74 279 0.0 0.0 0.00 0.00 0.00 95 1017.0
20260830115557 74 279 0.0 0.0 0.00 0.00 0.00 95 1016.9
20260830115032 74 279 0.0 0.0 0.00 0.00 0.00 94 1016.9
20260830114522 74 279 0.0 0.0 0.00 0.00 0.00 94 1016.9
20260830114051 74 279 0.0 0.0 0.00 0.00 0.00 94 1016.8
20260830113035 74 279 0.0 0.0 0.00 0.00 0.00 94 1016.8
20260830112522 74 279 0.0 0.0 0.00 0.00 0.00 94 1016.6
20260830112028 74 279 0.0 0.0 0.00 0.00 0.00 94 1016.6
20260830111523 74 279 0.0 0.0 0.00 0.00 0.00 94 1016.6
20260830111032 74 279 0.0 0.0 0.00 0.00 0.00 94 1016.4
20260830110535 74 279 0.0 0.0 0.00 0.00 0.00 94 1016.4
20260830110024 74 279 0.0 0.0 0.00 0.00 0.00 94 1016.4
20260830105519 74 279 0.0 0.0 0.00 0.00 0.00 94 1016.1
20260830105036 74 279 0.0 0.0 0.00 0.00 0.00 94 1016.1
20260830104553 74 279 0.0 0.0 0.00 0.00 0.00 94 1016.1
20260830104030 74 279 0.0 0.0 0.00 0.00 0.00 94 1016.1
20260830103525 74 279 0.0 0.0 0.00 0.00 0.00 94 1016.1
20260830103025 75 279 0.0 0.0 0.00 0.00 0.00 94 1016.1
20260830102523 75 279 0.0 0.0 0.00 0.00 0.00 94 1016.0
20260830102030 75 279 0.0 0.0 0.00 0.00 0.00 94 1016.0
20260830101521 75 279 0.0 0.0 0.00 0.00 0.00 94 1016.0
20260830100551 75 279 0.0 0.0 0.00 0.00 0.00 94 1015.9
20260830100105 75 279 0.0 0.0 0.00 0.00 0.00 94 1015.9
20260830095542 75 279 0.0 0.0 0.00 0.00 0.00 94 1015.8
20260830095029 74 279 0.0 0.0 0.00 0.00 0.00 94 1015.8
20260830094605 75 279 0.0 0.0 0.00 0.00 0.00 94 1015.8
20260830094043 75 279 0.0 0.0 0.00 0.00 0.00 94 1015.8
20260830093527 75 279 0.0 0.0 0.00 0.00 0.00 93 1015.8
20260830093044 75 279 0.0 0.0 0.00 0.00 0.00 93 1015.8
20260830092555 75 279 0.0 0.0 0.00 0.00 0.00 93 1015.7
20260830092025 75 279 0.0 0.0 0.00 0.00 0.00 93 1015.7
20260830091518 75 279 0.0 0.0 0.00 0.00 0.00 93 1015.7
20260830091048 75 279 0.0 0.0 0.00 0.00 0.00 93 1015.6
20260830090541 75 279 0.0 0.0 0.00 0.00 0.00 93 1015.6
20260830090029 75 279 0.0 0.0 0.00 0.00 0.00 93 1015.6
20260830085525 75 279 0.0 0.0 0.00 0.00 0.00 93 1015.5
20260830085022 75 279 0.0 0.0 0.00 0.00 0.00 92 1015.5
20260830084539 75 279 0.0 0.0 0.00 0.00 0.00 92 1015.5
20260830084023 75 279 0.0 0.0 0.00 0.00 0.00 92 1015.5
20260830083527 75 279 0.0 0.0 0.00 0.00 0.00 92 1015.5
20260830083013 75 279 0.0 0.0 0.00 0.00 0.00 92 1015.5
20260830082532 75 279 0.0 0.0 0.00 0.00 0.00 91 1015.4
20260830082021 76 279 0.0 0.0 0.00 0.00 0.00 91 1015.4
20260830081528 76 279 0.0 0.0 0.00 0.00 0.00 91 1015.4
20260830081042 76 279 0.0 0.0 0.00 0.00 0.00 91 1015.5
20260830080555 76 279 0.0 0.0 0.00 0.00 0.00 91 1015.5
20260830080020 76 279 0.0 0.0 0.00 0.00 0.00 91 1015.5
20260830075526 76 279 0.0 0.0 0.00 0.00 0.00 90 1015.3
20260830075020 76 279 0.0 0.0 0.00 0.00 0.00 90 1015.3
20260830074528 76 279 0.0 0.0 0.00 0.00 0.00 90 1015.3
20260830074035 76 279 0.0 0.0 0.00 0.00 0.00 90 1015.3
20260830073520 76 279 0.0 0.0 0.00 0.00 0.00 90 1015.3
20260830073029 77 279 0.0 0.0 0.00 0.00 0.00 90 1015.3
20260830072535 77 279 0.0 0.0 0.00 0.00 0.00 90 1015.5
20260830071529 77 279 0.0 0.0 0.00 0.00 0.00 89 1015.5
20260830071036 77 279 0.0 0.0 0.00 0.00 0.00 89 1015.5
20260830070527 77 279 0.0 0.0 0.00 0.00 0.00 89 1015.5
20260830070019 77 279 0.0 0.0 0.00 0.00 0.00 89 1015.5
20260830065520 77 279 0.0 0.0 0.00 0.00 0.00 89 1015.5
20260830065026 77 279 0.0 0.0 0.00 0.00 0.00 89 1015.5
20260830064020 77 279 0.0 0.0 0.00 0.00 0.00 89 1015.8
20260830063524 77 279 0.0 0.0 0.00 0.00 0.00 89 1015.8
20260830063023 77 279 0.0 0.0 0.00 0.00 0.00 89 1015.8
20260830062519 77 279 0.0 0.0 0.00 0.00 0.00 89 1015.8
20260830062023 77 279 0.0 0.0 0.00 0.00 0.00 89 1015.8
20260830061531 77 279 0.0 0.0 0.00 0.00 0.00 89 1015.8
20260830061047 78 279 0.0 0.0 0.00 0.00 0.00 89 1016.0
20260830060528 77 279 0.0 0.0 0.00 0.00 0.00 89 1016.0
20260830060034 77 279 0.0 0.0 0.00 0.00 0.00 89 1016.0
20260830055518 78 279 0.0 0.0 0.00 0.00 0.00 88 1016.1
20260830055014 78 279 0.0 0.0 0.00 0.00 0.00 89 1016.1
20260830054515 78 279 0.0 0.0 0.00 0.00 0.00 89 1016.1
20260830054015 78 279 0.0 0.0 0.00 0.00 0.00 88 1016.0
20260830053600 78 279 0.0 0.0 0.00 0.00 0.00 88 1016.0
20260830053040 78 279 0.0 0.0 0.00 0.00 0.00 88 1016.0
20260830052548 78 279 0.0 0.0 0.00 0.00 0.00 88 1016.1
20260830052039 78 279 0.0 0.0 0.00 0.00 0.00 88 1016.1
20260830051531 78 279 0.0 0.0 0.00 0.00 0.00 87 1016.1
20260830051039 78 279 0.0 0.0 0.00 0.00 0.00 87 1016.1
20260830050519 79 279 0.0 0.0 0.00 0.00 0.00 87 1016.1
20260830050034 79 279 0.0 0.0 0.00 0.00 0.00 87 1016.1
20260830045540 79 279 0.0 0.0 0.00 0.00 0.00 87 1016.1
20260830045042 79 279 0.0 0.0 0.00 0.00 0.00 86 1016.1
20260830044526 79 279 0.0 0.0 0.00 0.00 0.00 86 1016.1
20260830044028 79 279 0.0 0.0 0.00 0.00 0.00 86 1016.1
20260830043520 79 279 0.0 0.0 0.00 0.00 0.00 86 1016.1
20260830043024 79 279 0.0 0.0 0.00 0.00 0.00 86 1016.1
20260830042538 79 279 0.0 0.0 0.00 0.00 0.00 86 1016.1
20260830042039 79 279 0.0 0.0 0.00 0.00 0.00 86 1016.1
20260830041546 80 279 0.0 0.0 0.00 0.00 0.00 86 1016.1
20260830041042 80 279 0.0 0.0 0.00 0.00 0.00 86 1016.2
20260830040559 80 279 0.0 0.0 0.00 0.00 0.00 86 1016.2
20260830040043 80 279 0.0 0.0 0.00 0.00 0.00 86 1016.2
20260830035530 80 279 0.0 0.0 0.00 0.00 0.00 85 1016.1
20260830035029 80 279 0.0 0.0 0.00 0.00 0.00 85 1016.1
20260830034528 80 279 0.0 0.0 0.00 0.00 0.00 86 1016.1
20260830034029 80 279 0.0 0.0 0.00 0.00 0.00 86 1016.1
20260830033527 80 279 0.0 0.0 0.00 0.00 0.00 86 1016.1
20260830033029 80 279 0.0 0.0 0.00 0.00 0.00 86 1016.1
20260830032558 80 279 0.0 0.0 0.00 0.00 0.00 86 1016.0
20260830032025 80 279 0.0 0.0 0.00 0.00 0.00 86 1016.0
20260830031536 80 279 0.0 1.0 0.00 0.00 0.00 86 1016.0
20260830031021 80 279 0.0 0.0 0.00 0.00 0.00 86 1015.6
20260830030036 80 279 0.0 0.0 0.00 0.00 0.00 87 1015.6
20260830025525 80 279 0.0 0.0 0.00 0.00 0.00 87 1015.6
20260830025034 80 279 0.0 0.0 0.00 0.00 0.00 87 1015.6
20260830024524 80 279 0.0 0.0 0.00 0.00 0.00 87 1015.6
20260830024022 80 279 0.0 0.0 0.00 0.00 0.00 87 1015.5